Time,TemperatureF,DewpointF,PressureIn,WindDirection,WindDirectionDegrees,WindSpeedMPH,WindSpeedGustMPH,Humidity,HourlyPrecipIn,Conditions,Clouds,dailyrainin,SolarRadiationWatts/m^2,SoftwareType,DateUTC
2013-05-16 00:02:00,60.0,48.0,-100.00,West,261,2.0,5.0,65,0.00,,,-99.99,0.000000,,2013-05-16 04:02:00,
2013-05-16 00:33:00,56.0,51.0,-100.00,NNE,27,1.0,5.0,82,0.00,,,0.00,0.000000,,2013-05-16 04:33:00,
2013-05-16 00:42:00,56.0,51.0,-100.00,NNE,27,1.0,5.0,82,0.00,,,0.00,0.000000,,2013-05-16 04:42:00,
2013-05-16 00:53:00,56.0,51.0,-100.00,NNE,27,1.0,5.0,82,0.00,,,0.00,0.000000,,2013-05-16 04:53:00,
2013-05-16 01:03:00,56.0,51.0,-100.00,NNE,27,1.0,5.0,82,0.00,,,0.00,0.000000,,2013-05-16 05:03:00,
2013-05-16 01:32:00,54.0,51.0,-100.00,West,277,1.0,4.0,89,0.00,,,0.00,0.000000,,2013-05-16 05:32:00,
2013-05-16 01:42:00,54.0,51.0,-100.00,West,277,1.0,4.0,89,0.00,,,0.00,0.000000,,2013-05-16 05:42:00,
2013-05-16 01:52:00,54.0,51.0,-100.00,West,277,1.0,4.0,89,0.00,,,0.00,0.000000,,2013-05-16 05:52:00,
2013-05-16 02:02:00,54.0,51.0,-100.00,West,277,1.0,4.0,89,0.00,,,0.00,0.000000,,2013-05-16 06:02:00,
2013-05-16 02:33:00,52.0,50.0,-100.00,West,259,1.0,4.0,94,0.00,,,0.00,0.000000,,2013-05-16 06:33:00,
2013-05-16 02:43:00,52.0,50.0,-100.00,West,259,1.0,4.0,94,0.00,,,0.00,0.000000,,2013-05-16 06:43:00,
2013-05-16 02:53:00,52.0,50.0,-100.00,West,259,1.0,4.0,94,0.00,,,0.00,0.000000,,2013-05-16 06:53:00,
2013-05-16 03:02:00,52.0,50.0,-100.00,West,259,1.0,4.0,94,0.00,,,0.00,0.000000,,2013-05-16 07:02:00,
2013-05-16 03:34:00,51.0,50.0,-100.00,SW,215,1.0,3.0,98,0.00,,,0.00,0.000000,,2013-05-16 07:34:00,
2013-05-16 03:44:00,51.0,50.0,-100.00,SW,215,1.0,3.0,98,0.00,,,0.00,0.000000,,2013-05-16 07:44:00,
2013-05-16 03:54:00,51.0,50.0,-100.00,SW,215,1.0,3.0,98,0.00,,,0.00,0.000000,,2013-05-16 07:54:00,
2013-05-16 04:03:00,51.0,50.0,-100.00,SW,215,1.0,3.0,98,0.00,,,0.00,0.000000,,2013-05-16 08:03:00,
2013-05-16 04:35:00,50.0,50.0,-100.00,WNW,290,2.0,3.0,99,0.00,,,0.00,0.000000,,2013-05-16 08:35:00,
2013-05-16 04:45:00,50.0,50.0,-100.00,WNW,290,2.0,3.0,99,0.00,,,0.00,0.000000,,2013-05-16 08:45:00,
2013-05-16 04:55:00,50.0,50.0,-100.00,WNW,290,2.0,3.0,99,0.00,,,0.00,0.000000,,2013-05-16 08:55:00,
2013-05-16 05:04:00,50.0,50.0,-100.00,WNW,290,2.0,3.0,99,0.00,,,0.00,0.000000,,2013-05-16 09:04:00,
2013-05-16 05:05:00,50.0,50.0,-100.00,NNW,334,1.0,3.0,100,0.00,,,0.00,0.000000,,2013-05-16 09:05:00,
2013-05-16 05:35:00,50.0,50.0,-100.00,NNW,334,1.0,3.0,100,0.00,,,0.00,0.000000,,2013-05-16 09:35:00,
2013-05-16 05:45:00,50.0,50.0,-100.00,NNW,334,1.0,3.0,100,0.00,,,0.00,0.000000,,2013-05-16 09:45:00,
2013-05-16 05:55:00,50.0,50.0,-100.00,NNW,334,1.0,3.0,100,0.00,,,0.00,0.000000,,2013-05-16 09:55:00,
2013-05-16 06:05:00,49.0,49.0,-100.00,WNW,290,1.0,2.0,100,0.00,,,0.00,0.000000,,2013-05-16 10:05:00,
2013-05-16 06:36:00,49.0,49.0,-100.00,WNW,290,1.0,2.0,100,0.00,,,0.00,0.000000,,2013-05-16 10:36:00,
2013-05-16 06:45:00,49.0,49.0,-100.00,WNW,290,1.0,2.0,100,0.00,,,0.00,0.000000,,2013-05-16 10:45:00,
2013-05-16 06:56:00,49.0,49.0,-100.00,WNW,290,1.0,2.0,100,0.00,,,0.00,0.000000,,2013-05-16 10:56:00,
2013-05-16 07:05:00,50.0,50.0,-100.00,West,280,1.0,3.0,100,0.00,,,0.00,0.000000,,2013-05-16 11:05:00,
2013-05-16 07:35:00,50.0,50.0,-100.00,West,280,1.0,3.0,100,0.00,,,0.00,0.000000,,2013-05-16 11:35:00,
2013-05-16 07:46:00,50.0,50.0,-100.00,West,280,1.0,3.0,100,0.00,,,0.00,0.000000,,2013-05-16 11:46:00,
2013-05-16 07:57:00,50.0,50.0,-100.00,West,280,1.0,3.0,100,0.00,,,0.00,0.000000,,2013-05-16 11:57:00,
2013-05-16 08:35:00,54.0,54.0,-100.00,SW,232,1.0,3.0,100,0.00,,,0.00,0.000000,,2013-05-16 12:35:00,
2013-05-16 08:45:00,54.0,54.0,-100.00,SW,232,1.0,3.0,100,0.00,,,0.00,0.000000,,2013-05-16 12:45:00,
2013-05-16 08:53:00,54.0,54.0,-100.00,SW,232,1.0,3.0,100,0.00,,,0.00,0.000000,,2013-05-16 12:53:00,
2013-05-16 09:04:00,54.0,54.0,-100.00,SW,232,1.0,3.0,100,0.00,,,0.00,0.000000,,2013-05-16 13:04:00,
2013-05-16 09:05:00,59.0,57.0,-100.00,ENE,70,1.0,4.0,92,0.00,,,-99.99,0.000000,,2013-05-16 13:05:00,
2013-05-16 09:35:00,59.0,57.0,-100.00,ENE,70,1.0,4.0,92,0.00,,,-99.99,0.000000,,2013-05-16 13:35:00,
2013-05-16 09:44:00,59.0,57.0,-100.00,ENE,70,1.0,4.0,92,0.00,,,-99.99,0.000000,,2013-05-16 13:44:00,
2013-05-16 09:55:00,59.0,57.0,-100.00,ENE,70,1.0,4.0,92,0.00,,,-99.99,0.000000,,2013-05-16 13:55:00,
2013-05-16 10:05:00,67.0,58.0,-100.00,SSE,151,2.0,7.0,73,0.00,,,0.00,194.000000,,2013-05-16 14:05:00,
2013-05-16 10:37:00,67.0,58.0,-100.00,SSE,151,2.0,7.0,73,0.00,,,0.00,194.000000,,2013-05-16 14:37:00,
2013-05-16 10:47:00,67.0,58.0,-100.00,SSE,151,2.0,7.0,73,0.00,,,0.00,194.000000,,2013-05-16 14:47:00,
2013-05-16 10:56:00,67.0,58.0,-100.00,SSE,151,2.0,7.0,73,0.00,,,0.00,194.000000,,2013-05-16 14:56:00,
2013-05-16 11:05:00,70.0,58.0,-100.00,East,88,3.0,6.0,65,0.00,,,0.00,339.000000,,2013-05-16 15:05:00,
2013-05-16 11:40:00,70.0,58.0,-100.00,East,88,3.0,6.0,65,0.00,,,0.00,339.000000,,2013-05-16 15:40:00,
2013-05-16 11:50:00,70.0,58.0,-100.00,East,88,3.0,6.0,65,0.00,,,0.00,339.000000,,2013-05-16 15:50:00,
2013-05-16 12:01:00,70.0,58.0,-100.00,East,88,3.0,6.0,65,0.00,,,0.00,339.000000,,2013-05-16 16:01:00,
2013-05-16 12:05:00,73.0,57.0,-100.00,ESE,106,2.0,7.0,57,0.00,,,0.00,425.000000,,2013-05-16 16:05:00,
2013-05-16 12:40:00,73.0,-99.9,-100.00,ESE,106,2.0,7.0,57,0.00,,,0.00,425.000000,,2013-05-16 16:40:00,
2013-05-16 12:51:00,73.0,57.0,-100.00,ESE,106,2.0,7.0,57,0.00,,,0.00,425.000000,,2013-05-16 16:51:00,
2013-05-16 13:01:00,73.0,57.0,-100.00,ESE,106,2.0,7.0,57,0.00,,,0.00,425.000000,,2013-05-16 17:01:00,
2013-05-16 13:05:00,71.0,54.0,-100.00,NE,42,4.0,8.0,54,0.00,,,-99.99,278.000000,,2013-05-16 17:05:00,
2013-05-16 13:40:00,71.0,54.0,-100.00,NE,42,4.0,8.0,54,0.00,,,-99.99,278.000000,,2013-05-16 17:40:00,
2013-05-16 13:50:00,-999.0,-99.9,-100.00,NE,42,4.0,8.0,54,0.00,,,-99.99,278.000000,,2013-05-16 17:50:00,
2013-05-16 14:00:00,-999.0,-99.9,-100.00,NE,42,4.0,8.0,54,0.00,,,-99.99,278.000000,,2013-05-16 18:00:00,
2013-05-16 14:05:00,75.0,-99.9,-100.00,NE,50,5.0,8.0,51,0.00,,,0.00,376.000000,,2013-05-16 18:05:00,
2013-05-16 14:41:00,-999.0,-99.9,-100.00,NE,50,5.0,8.0,51,0.00,,,0.00,376.000000,,2013-05-16 18:41:00,
2013-05-16 14:50:00,-999.0,-99.9,-100.00,NE,50,5.0,8.0,51,0.00,,,0.00,376.000000,,2013-05-16 18:50:00,
2013-05-16 15:01:00,-999.0,-99.9,-100.00,NE,50,5.0,8.0,51,0.00,,,0.00,376.000000,,2013-05-16 19:01:00,
2013-05-16 15:05:00,-999.0,-99.9,-100.00,ENE,66,3.0,9.0,46,0.00,,,0.00,632.000000,,2013-05-16 19:05:00,
2013-05-16 15:40:00,78.0,-99.9,-100.00,ENE,66,3.0,9.0,46,0.00,,,0.00,632.000000,,2013-05-16 19:40:00,
2013-05-16 15:51:00,-999.0,-99.9,-100.00,ENE,66,3.0,9.0,46,0.00,,,0.00,632.000000,,2013-05-16 19:51:00,
2013-05-16 16:01:00,-999.0,-99.9,-100.00,ENE,66,3.0,9.0,46,0.00,,,0.00,632.000000,,2013-05-16 20:01:00,
2013-05-16 16:05:00,-999.0,-99.9,-100.00,NE,43,5.0,10.0,44,0.00,,,0.00,584.000000,,2013-05-16 20:05:00,
2013-05-16 16:41:00,-999.0,-99.9,-100.00,NE,43,5.0,10.0,44,0.00,,,0.00,584.000000,,2013-05-16 20:41:00,
2013-05-16 16:51:00,80.0,56.0,-100.00,NE,43,5.0,10.0,44,0.00,,,0.00,584.000000,,2013-05-16 20:51:00,
2013-05-16 17:00:00,80.0,-99.9,-100.00,NE,43,5.0,10.0,44,0.00,,,0.00,584.000000,,2013-05-16 21:00:00,
2013-05-16 17:05:00,79.0,54.0,-100.00,East,94,5.0,9.0,42,0.00,,,0.00,293.000000,,2013-05-16 21:05:00,
2013-05-16 18:01:00,-999.0,-99.9,-100.00,East,94,5.0,9.0,42,0.00,,,0.00,293.000000,,2013-05-16 22:01:00,
2013-05-16 18:05:00,81.0,54.0,-100.00,ESE,114,2.0,8.0,40,0.00,,,0.00,165.000000,,2013-05-16 22:05:00,
2013-05-16 18:40:00,81.0,54.0,-100.00,ESE,114,2.0,8.0,40,0.00,,,0.00,165.000000,,2013-05-16 22:40:00,
2013-05-16 18:51:00,81.0,54.0,-100.00,ESE,114,2.0,8.0,40,0.00,,,0.00,165.000000,,2013-05-16 22:51:00,
2013-05-16 19:01:00,81.0,54.0,-100.00,ESE,114,2.0,8.0,40,0.00,,,0.00,165.000000,,2013-05-16 23:01:00,
2013-05-16 19:35:00,79.0,51.0,-100.00,WSW,237,5.0,11.0,38,0.00,,,0.00,82.000000,,2013-05-16 23:35:00,
2013-05-16 19:45:00,79.0,51.0,-100.00,WSW,237,5.0,11.0,38,0.00,,,0.00,82.000000,,2013-05-16 23:45:00,
2013-05-16 19:54:00,79.0,51.0,-100.00,WSW,237,5.0,11.0,38,0.00,,,0.00,82.000000,,2013-05-16 23:54:00,
2013-05-16 20:03:00,79.0,51.0,-100.00,WSW,237,5.0,11.0,38,0.00,,,0.00,82.000000,,2013-05-17 00:03:00,
2013-05-16 20:33:00,74.0,48.0,-100.00,West,271,2.0,10.0,40,0.00,,,-99.99,67.000000,,2013-05-17 00:33:00,
2013-05-16 20:44:00,74.0,48.0,-100.00,West,271,2.0,10.0,40,0.00,,,-99.99,67.000000,,2013-05-17 00:44:00,
2013-05-16 20:53:00,74.0,48.0,-100.00,West,271,2.0,10.0,40,0.00,,,-99.99,67.000000,,2013-05-17 00:53:00,
2013-05-16 21:03:00,74.0,48.0,-100.00,West,271,2.0,10.0,40,0.00,,,-99.99,67.000000,,2013-05-17 01:03:00,
2013-05-16 21:32:00,65.0,53.0,-100.00,ENE,62,1.0,3.0,64,0.00,,,0.00,2.000000,,2013-05-17 01:32:00,
2013-05-16 21:44:00,65.0,53.0,-100.00,ENE,62,1.0,3.0,64,0.00,,,0.00,2.000000,,2013-05-17 01:44:00,
2013-05-16 21:53:00,65.0,53.0,-100.00,ENE,62,1.0,3.0,64,0.00,,,0.00,2.000000,,2013-05-17 01:53:00,
2013-05-16 22:02:00,65.0,53.0,-100.00,ENE,62,1.0,3.0,64,0.00,,,0.00,2.000000,,2013-05-17 02:02:00,
2013-05-16 22:33:00,61.0,53.0,-100.00,West,278,2.0,4.0,75,0.00,,,0.00,0.000000,,2013-05-17 02:33:00,
2013-05-16 22:42:00,61.0,53.0,-100.00,West,278,2.0,4.0,75,0.00,,,0.00,0.000000,,2013-05-17 02:42:00,
2013-05-16 22:53:00,61.0,53.0,-100.00,West,278,2.0,4.0,75,0.00,,,0.00,0.000000,,2013-05-17 02:53:00,
2013-05-16 23:02:00,61.0,53.0,-100.00,West,278,2.0,4.0,75,0.00,,,0.00,0.000000,,2013-05-17 03:02:00,
2013-05-16 23:34:00,59.0,54.0,-100.00,West,264,1.0,4.0,85,0.00,,,0.00,0.000000,,2013-05-17 03:34:00,
2013-05-16 23:43:00,59.0,54.0,-100.00,West,264,1.0,4.0,85,0.00,,,0.00,0.000000,,2013-05-17 03:43:00,
2013-05-16 23:53:00,59.0,54.0,-100.00,West,264,1.0,4.0,85,0.00,,,0.00,0.000000,,2013-05-17 03:53:00,